[[{"header":{"parameterUnit":"m.s-1","parameterCategory":1,"la1":30.2991,"la2":30.254,"lo1":-89.0895,"lo2":-89.0444,"dy":0.0017,"dx":0.0017,"nx":28,"ny":28,"refTime":"2024-06-09T09:00:00:Z","depth":0,"parameterNumber":2,"parameterNumberName":"U-component_of_WINDS"},"data":[0,0,0,0,0,0,0,0,0,0,0,0,0,0,0,0,0,0,0,0,0,0,0,0,0,0,0,0,0,0,0,0,0,0,0,0,0,0,0,0,0,0,0,0,0,0,0,0,0,0,0,0,0,0,0,0,0,0,2.9005,2.9006,0,2.914,2.9142,2.9143,2.9121,2.9119,2.9116,2.9114,2.9257,2.9262,2.9268,0,0,0,0,0,0,0,0,0,0,0,0,0,2.8731,2.8736,2.9005,2.9007,2.9008,2.914,2.9142,2.9144,2.9121,2.9118,2.9116,2.9113,2.9255,2.9262,2.9269,0,0,0,0,0,0,0,0,0,0,0,0,0,2.8857,2.8738,2.9005,2.9013,2.9015,2.914,2.9142,2.9144,2.9122,2.9118,2.9115,2.9112,2.9252,2.9261,2.927,2.9396,0,0,2.9297,2.9301,0,0,0,0,0,0,0,0,2.885,2.8867,2.901,2.9013,2.9015,2.911,2.9098,2.9229,2.9123,2.9081,2.9114,2.911,2.9211,2.9223,2.9256,2.9403,2.9409,2.9298,2.9304,2.9307,2.931,0,0,0,0,0,0,0,2.8841,2.8861,2.9059,2.9012,2.9015,2.9011,2.9025,2.9122,2.9165,2.9085,2.9083,2.91,2.9212,2.9248,2.926,2.9411,2.9298,2.9306,2.9311,2.9315,2.9667,2.967,0,0,0,0,0,0,2.8829,2.8854,2.9054,2.9063,2.8922,2.9019,2.9034,2.9083,2.9163,2.9172,2.9102,2.9098,2.9234,2.9249,2.9264,2.9416,2.9307,2.9316,2.9321,2.9663,2.9668,2.9672,0,0,0,0,0,0,2.8824,2.8847,2.9049,2.8958,2.8983,2.9027,2.9082,2.9088,2.9123,2.9177,2.9184,2.9131,2.9232,2.9252,2.9363,2.9421,2.932,2.9328,2.9658,2.9664,2.967,2.9721,0,0,0,0,0,0,2.8816,2.8845,2.8893,2.8959,2.8988,2.9144,2.9086,2.9093,2.9139,2.9134,2.9206,2.9214,2.9231,2.935,2.9372,2.9431,2.9335,2.9653,2.9661,2.9668,2.9714,2.9728,2.974,0,0,0,0,0,2.8806,2.8903,2.8895,2.892,2.9048,2.9147,2.9164,2.918,2.9143,2.9192,2.9226,2.9212,2.9411,2.9361,2.9386,2.9449,2.9649,2.9659,2.9667,2.9709,2.9725,2.9739,0,0,0,0,0,0,2.8844,2.8912,2.8904,2.9025,2.908,2.9143,2.9205,2.9197,2.9265,2.9258,2.9276,2.9293,2.9405,2.9439,2.9382,2.9575,2.9525,2.954,2.9548,2.9565,2.9577,2.9566,2.9342,0,0,0,0,0,2.8866,2.894,2.8996,2.9097,2.9125,2.916,2.9204,2.9211,2.927,2.9294,2.9336,2.9394,2.947,2.952,2.9592,2.972,2.9735,2.9776,2.9788,2.9798,2.981,2.9879,2.9897,2.9701,2.9701,2.9701,0,0,2.8913,2.8959,2.9005,2.9106,2.9149,2.9226,2.918,2.9264,2.9321,2.9307,2.9413,2.9447,2.9513,2.9633,2.9688,2.9664,2.9868,2.981,2.9817,2.9824,2.989,2.9908,2.9925,2.9707,2.9706,2.9705,0,0,2.9037,2.908,2.9168,2.9213,2.9279,2.9302,2.9323,2.9388,2.9408,2.9516,2.9506,2.9576,2.9706,2.9753,2.9795,2.9937,2.9927,2.9961,3.0026,3.0093,3.0109,3.0122,3.0172,3.019,2.9973,2.9973,2.9973,0,2.9087,2.92,2.9215,2.9299,2.9344,2.9334,2.9424,2.9467,2.9554,2.9586,2.9558,2.9721,2.9765,2.9895,2.993,2.9964,2.9989,2.9952,3.0105,3.0119,3.0132,3.018,3.0198,2.9976,2.9976,2.9976,2.9975,0,2.9258,2.9338,2.9402,2.9484,2.9536,2.9623,2.9652,2.9703,2.9707,2.9733,2.9842,2.9895,2.9977,3.0009,3.0014,3.014,3.0123,3.0101,3.0051,3.0154,3.0199,3.0217,2.9981,2.998,2.9979,2.9978,0,0,2.9408,2.9498,2.9521,2.9558,2.9631,2.9693,2.978,2.9859,2.9902,2.9964,3.0037,3.0147,3.0126,3.0173,3.0184,3.0243,3.035,3.0213,3.0214,3.0235,3.0491,3.0506,3.0527,3.0345,3.0348,3.0351,3.0485,0,2.9538,2.9689,2.9705,2.984,2.9913,2.9906,2.9981,3.0035,3.0062,3.0129,3.016,3.0237,3.0204,3.0232,3.029,3.0325,3.0402,3.0316,3.0412,3.0416,3.0394,3.055,3.0567,3.069,3.0503,3.0506,3.0508,0,2.9708,2.9772,2.9915,2.9977,3.0008,3.0076,3.015,3.0214,3.0275,3.029,3.0342,3.0345,3.0435,3.0383,3.0508,3.0449,3.049,3.0513,3.0518,3.0526,3.0466,3.0561,3.073,3.0748,3.0536,3.0534,3.0532,0,2.9801,2.9924,3.0024,3.0057,3.0132,3.018,3.0214,3.0271,3.0317,3.0383,3.0413,3.0489,3.053,3.0589,3.0612,3.0573,3.0736,3.0686,3.0751,3.075,3.0784,3.0781,3.096,3.0814,3.0813,3.0813,3.0812,0,2.9942,3.0029,3.0067,3.0128,3.0226,3.0245,3.0341,3.0373,3.0424,3.0492,3.0492,3.0556,3.0584,3.0653,3.0672,3.0771,3.0791,3.0806,3.0809,3.0805,3.0802,3.083,3.0821,3.0818,3.0817,3.0816,3.0815,0,3.0061,3.009,3.0199,3.0261,3.0279,3.0348,3.0402,3.0462,3.0489,3.0575,3.0597,3.0639,3.072,3.075,3.0849,3.0862,3.0977,3.0974,3.0955,3.0956,3.1018,3.1011,3.122,3.1247,3.1085,3.1086,3.1087,0,3.0148,3.0215,3.0285,3.033,3.0365,3.0438,3.0485,3.0507,3.0556,3.0631,3.0682,3.0762,3.0827,3.0958,3.0998,3.1074,3.1072,3.114,3.1084,3.1076,3.1071,3.1065,3.1072,3.115,3.1152,3.1153,3.1154,0,3.03,3.0311,3.0378,3.0451,3.0507,3.0566,3.0623,3.066,3.0691,3.0746,3.0829,3.0879,3.098,3.106,3.1138,3.1174,3.1169,3.1172,3.1191,3.1185,3.117,3.1177,3.0982,3.1166,3.1165,3.1164,3.1164,3.1163,3.0404,3.0462,3.052,3.0595,3.0641,3.0694,3.0753,3.0787,3.0855,3.0938,3.0947,3.1036,3.1095,3.1199,3.1239,3.1308,3.129,3.1317,3.1324,3.133,3.1333,3.1161,3.1323,3.1323,3.1323,3.1322,3.1322,0,3.0553,3.059,3.0659,3.0738,3.0798,3.0788,3.0851,3.0901,3.0979,3.1034,3.1098,3.1193,3.127,3.1316,3.1394,3.1441,3.1441,3.1461,3.1456,3.1464,3.1347,3.1321,3.1459,3.1459,3.1459,3.1459,3.1459,3.1459,3.0638,3.0735,3.0753,3.0874,3.0911,3.0996,3.1032,3.1082,3.1126,3.1231,3.1295,3.1324,3.1376,3.1458,3.1528,3.154,3.1568,3.1589,3.1599,3.1487,3.1473,3.1459,3.1436,3.1596,3.1596,3.1711,3.1712,3.1712]},{"header":{"parameterUnit":"m.s-1","parameterCategory":1,"la1":30.2991,"la2":30.254,"lo1":-89.0895,"lo2":-89.0444,"dy":0.0017,"dx":0.0017,"nx":28,"ny":28,"refTime":"2024-06-09T09:00:00:Z","depth":0,"parameterNumber":3,"parameterNumberName":"V-component_of_WINDS"},"data":[0,0,0,0,0,0,0,0,0,0,0,0,0,0,0,0,0,0,0,0,0,0,0,0,0,0,0,0,0,0,0,0,0,0,0,0,0,0,0,0,0,0,0,0,0,0,0,0,0,0,0,0,0,0,0,0,0,0,3.8758,3.876,0,3.8906,3.8907,3.8909,3.8921,3.8919,3.8918,3.8916,3.906,3.9065,3.907,0,0,0,0,0,0,0,0,0,0,0,0,0,3.8475,3.848,3.8758,3.876,3.8762,3.8905,3.8907,3.8909,3.8921,3.8919,3.8917,3.8915,3.9058,3.9064,3.9071,0,0,0,0,0,0,0,0,0,0,0,0,0,3.8608,3.8482,3.8758,3.8785,3.8789,3.8905,3.8907,3.891,3.8921,3.8919,3.8917,3.8915,3.9056,3.9064,3.9072,3.9168,0,0,3.9096,3.9099,0,0,0,0,0,0,0,0,3.86,3.8618,3.8779,3.8783,3.8788,3.8893,3.886,3.8996,3.8922,3.8871,3.8916,3.8913,3.9006,3.9017,3.905,3.9175,3.9181,3.9097,3.9101,3.9105,3.9107,0,0,0,0,0,0,0,3.8591,3.8612,3.8816,3.8781,3.8787,3.8786,3.8802,3.8886,3.8949,3.8875,3.8876,3.8894,3.9007,3.9042,3.9054,3.9183,3.9096,3.9103,3.9108,3.9111,3.9387,3.9389,0,0,0,0,0,0,3.8578,3.8604,3.8811,3.8821,3.8687,3.8793,3.8811,3.8861,3.8949,3.896,3.8896,3.8894,3.903,3.9044,3.9059,3.9173,3.9105,3.9112,3.9117,3.9384,3.9387,3.939,0,0,0,0,0,0,3.8572,3.8596,3.8806,3.8713,3.8739,3.8801,3.8856,3.8865,3.8901,3.8965,3.8975,3.8921,3.9029,3.9047,3.914,3.9178,3.9116,3.9123,3.9381,3.9385,3.9389,3.9405,0,0,0,0,0,0,3.8564,3.8594,3.8635,3.8714,3.8744,3.8888,3.8859,3.887,3.8915,3.8914,3.8991,3.9001,3.9028,3.9128,3.9148,3.9188,3.9129,3.9378,3.9383,3.9388,3.9402,3.9409,3.9416,0,0,0,0,0,3.8554,3.8633,3.8637,3.8661,3.8797,3.889,3.8907,3.8939,3.8918,3.8957,3.8997,3.8998,3.9171,3.9137,3.916,3.9203,3.9376,3.9382,3.9387,3.9398,3.9408,3.9416,0,0,0,0,0,0,3.8556,3.8644,3.8649,3.8757,3.8816,3.8892,3.8942,3.8949,3.9014,3.901,3.9044,3.9061,3.9151,3.9186,3.9147,3.9297,3.9271,3.9281,3.9271,3.9281,3.9288,3.9276,3.9136,0,0,0,0,0,3.8569,3.8641,3.8713,3.8801,3.883,3.8881,3.8923,3.8942,3.9004,3.9028,3.9075,3.9132,3.9198,3.9242,3.9307,3.9407,3.942,3.9447,3.9454,3.946,3.9468,3.9517,3.9528,3.9409,3.9409,3.9409,0,0,3.8597,3.8654,3.8697,3.8803,3.8851,3.892,3.8902,3.8978,3.9028,3.9039,3.9129,3.9164,3.923,3.9325,3.9369,3.9357,3.9503,3.9467,3.9471,3.9476,3.9524,3.9535,3.9545,3.9413,3.9412,3.9412,0,0,3.8682,3.8735,3.8812,3.8859,3.8932,3.8965,3.8983,3.9057,3.9081,3.9172,3.918,3.9239,3.9354,3.9399,3.9437,3.9533,3.9535,3.9553,3.959,3.9637,3.9647,3.9655,3.9685,3.9696,3.9561,3.9561,3.9561,0,3.8707,3.8815,3.885,3.8924,3.8968,3.8982,3.9056,3.91,3.919,3.9218,3.9204,3.9345,3.9391,3.9493,3.9516,3.9548,3.9566,3.9544,3.9643,3.9652,3.966,3.9689,3.9701,3.9563,3.9563,3.9562,3.9562,0,3.8839,3.8913,3.8966,3.9053,3.9102,3.9177,3.9218,3.9263,3.9277,3.9309,3.9398,3.9452,3.9526,3.9552,3.9566,3.9655,3.9645,3.9637,3.961,3.9673,3.97,3.9712,3.9565,3.9564,3.9564,3.9563,0,0,3.8932,3.9034,3.9053,3.909,3.9169,3.9225,3.9297,3.9371,3.9407,3.9466,3.9524,3.9619,3.9611,3.9653,3.9672,3.9714,3.9781,3.97,3.9702,3.971,3.9876,3.988,3.9893,3.9783,3.9785,3.9787,3.987,0,3.9024,3.9156,3.9186,3.9298,3.9363,3.9375,3.9437,3.9489,3.952,3.9577,3.961,3.9675,3.9661,3.9686,3.9729,3.9764,3.9814,3.9759,3.9833,3.9835,3.9814,3.9908,3.9914,3.9989,3.9881,3.9883,3.9884,0,3.9149,3.9212,3.933,3.9396,3.9424,3.948,3.9547,3.9603,3.966,3.9679,3.9725,3.9738,3.9808,3.9778,3.9872,3.9834,3.9865,3.9886,3.989,3.9896,3.9862,3.9914,4.0015,4.0025,3.9902,3.9901,3.99,0,3.92,3.9314,3.9398,3.943,3.951,3.9548,3.9582,3.9638,3.9678,3.9735,3.9761,3.9825,3.986,3.9907,3.9935,3.9911,4.0025,3.9999,4.0039,4.0038,4.0061,4.0059,4.0165,4.0086,4.0086,4.0085,4.0085,0,3.9298,3.9368,3.9421,3.9473,3.955,3.9583,3.9657,3.9691,3.9739,3.9794,3.9808,3.9858,3.9893,3.9947,3.9969,4.004,4.0057,4.007,4.0075,4.0068,4.0066,4.0088,4.0082,4.0088,4.0088,4.0087,4.0087,0,3.9368,3.9407,3.9498,3.9566,3.9584,3.9638,3.9693,3.9741,3.9771,3.9839,3.9857,3.9903,3.9966,3.9999,4.0078,4.0092,4.0172,4.0175,4.0153,4.0154,4.0191,4.0186,4.0314,4.033,4.0242,4.0243,4.0243,0,3.9427,3.9481,3.9554,3.9592,3.9627,3.969,3.9731,3.9762,3.9804,3.9871,3.9909,3.9973,4.0027,4.0127,4.0164,4.0223,4.0226,4.0266,4.0235,4.0224,4.0222,4.0217,4.0221,4.0271,4.0272,4.0273,4.0273,0,3.9525,3.9541,3.9601,3.9666,3.9715,3.9768,3.982,3.9849,3.9889,3.9934,4.0,4.0041,4.012,4.0182,4.0243,4.0274,4.0279,4.0283,4.0295,4.0287,4.0271,4.0276,4.0165,4.028,4.0279,4.0279,4.0278,4.0278,3.9589,3.9636,3.9693,3.9758,3.98,3.9847,3.9894,3.9929,3.9986,4.0054,4.0069,4.0137,4.0187,4.027,4.0302,4.0353,4.0344,4.0362,4.0366,4.0369,4.0369,4.0264,4.0364,4.0364,4.0364,4.0364,4.0364,0,3.9685,3.9722,3.9781,3.9853,3.9902,3.9904,3.996,4.0,4.0061,4.0109,4.0161,4.0233,4.0292,4.0333,4.0392,4.0424,4.0427,4.0438,4.0435,4.0441,4.0376,4.0358,4.0435,4.0434,4.0434,4.0434,4.0434,4.0434,3.9741,3.9819,3.984,3.9937,3.9973,4.0041,4.0072,4.0114,4.0152,4.0233,4.0282,4.0309,4.0353,4.0414,4.0466,4.0477,4.0496,4.0507,4.0516,4.0454,4.0446,4.0439,4.0423,4.0511,4.0511,4.0577,4.0578,4.0578]}]]